[[{"header":{"parameterUnit":"m.s-1","parameterCategory":1,"la1":30.2991,"la2":30.254,"lo1":-89.0895,"lo2":-89.0444,"dy":0.0017,"dx":0.0017,"nx":28,"ny":28,"refTime":"2024-06-03T03:00:00:Z","depth":0,"parameterNumber":2,"parameterNumberName":"U-component_of_WINDS"},"data":[0,0,0,0,0,0,0,0,0,0,0,0,0,0,0,0,0,0,0,0,0,0,0,0,0,0,0,0,0,0,0,0,0,0,0,0,0,0,0,0,0,0,0,0,0,0,0,0,0,0,0,0,0,0,0,0,0,0,-1.4503,-1.4503,0,-1.4548,-1.4548,-1.4549,-1.4543,-1.4542,-1.4541,-1.4541,-1.459,-1.4592,-1.4594,0,0,0,0,0,0,0,0,0,0,0,0,0,-1.4416,-1.4418,-1.4503,-1.4503,-1.4504,-1.4548,-1.4548,-1.4549,-1.4543,-1.4542,-1.4541,-1.454,-1.4589,-1.4592,-1.4594,0,0,0,0,0,0,0,0,0,0,0,0,0,-1.4457,-1.4419,-1.4503,-1.4506,-1.4507,-1.4547,-1.4548,-1.4549,-1.4543,-1.4542,-1.4541,-1.454,-1.4589,-1.4591,-1.4594,-1.4635,0,0,-1.4604,-1.4605,0,0,0,0,0,0,0,0,-1.4455,-1.446,-1.4505,-1.4506,-1.4507,-1.4538,-1.4536,-1.4578,-1.4543,-1.4529,-1.4541,-1.4539,-1.4574,-1.4578,-1.4589,-1.4638,-1.464,-1.4604,-1.4606,-1.4607,-1.4608,0,0,0,0,0,0,0,-1.4452,-1.4458,-1.4521,-1.4506,-1.4507,-1.4507,-1.4511,-1.4544,-1.4558,-1.4531,-1.453,-1.4535,-1.4574,-1.4586,-1.459,-1.4641,-1.4604,-1.4606,-1.4608,-1.461,-1.4728,-1.4729,0,0,0,0,0,0,-1.4448,-1.4456,-1.4519,-1.4522,-1.4477,-1.4509,-1.4514,-1.4529,-1.4557,-1.456,-1.4536,-1.4535,-1.4582,-1.4587,-1.4592,-1.4643,-1.4607,-1.461,-1.4612,-1.4726,-1.4728,-1.4729,0,0,0,0,0,0,-1.4446,-1.4453,-1.4517,-1.4489,-1.4497,-1.4512,-1.4529,-1.4531,-1.4543,-1.4561,-1.4564,-1.4546,-1.4581,-1.4588,-1.4625,-1.4645,-1.4611,-1.4614,-1.4725,-1.4727,-1.4729,-1.4745,0,0,0,0,0,0,-1.4443,-1.4453,-1.4467,-1.4489,-1.4498,-1.4548,-1.453,-1.4533,-1.4548,-1.4546,-1.4571,-1.4574,-1.4581,-1.462,-1.4628,-1.4648,-1.4616,-1.4723,-1.4726,-1.4728,-1.4742,-1.4747,-1.4751,0,0,0,0,0,-1.444,-1.447,-1.4468,-1.4475,-1.4517,-1.4549,-1.4555,-1.4561,-1.4549,-1.4565,-1.4577,-1.4573,-1.4641,-1.4624,-1.4633,-1.4654,-1.4722,-1.4725,-1.4728,-1.4741,-1.4746,-1.4751,0,0,0,0,0,0,-1.4451,-1.4473,-1.4471,-1.4508,-1.4527,-1.4548,-1.4568,-1.4566,-1.4589,-1.4587,-1.4594,-1.46,-1.4638,-1.465,-1.4631,-1.4697,-1.468,-1.4685,-1.4687,-1.4692,-1.4697,-1.4693,-1.4619,0,0,0,0,0,-1.4457,-1.448,-1.4499,-1.4531,-1.454,-1.4552,-1.4567,-1.457,-1.459,-1.4598,-1.4613,-1.4634,-1.466,-1.4677,-1.4702,-1.4744,-1.4751,-1.4764,-1.4768,-1.4771,-1.4775,-1.4801,-1.4807,-1.4739,-1.4739,-1.4739,0,0,-1.4471,-1.4486,-1.4501,-1.4533,-1.4548,-1.4573,-1.4559,-1.4586,-1.4606,-1.4602,-1.4638,-1.465,-1.4674,-1.4715,-1.4733,-1.4726,-1.4795,-1.4775,-1.4777,-1.478,-1.4804,-1.4811,-1.4816,-1.4741,-1.4741,-1.4741,0,0,-1.451,-1.4523,-1.4551,-1.4566,-1.4589,-1.4597,-1.4604,-1.4626,-1.4634,-1.467,-1.4668,-1.4693,-1.4737,-1.4754,-1.4769,-1.4817,-1.4815,-1.4825,-1.4847,-1.4871,-1.4877,-1.4881,-1.49,-1.4906,-1.4829,-1.4829,-1.4829,0,-1.4525,-1.4561,-1.4566,-1.4594,-1.4609,-1.4607,-1.4637,-1.4652,-1.4682,-1.4693,-1.4684,-1.4741,-1.4757,-1.4802,-1.4814,-1.4826,-1.4835,-1.4822,-1.4875,-1.488,-1.4885,-1.4902,-1.4909,-1.483,-1.483,-1.483,-1.483,0,-1.4579,-1.4605,-1.4626,-1.4654,-1.4672,-1.47,-1.4711,-1.4729,-1.4731,-1.4741,-1.4779,-1.4798,-1.4828,-1.4839,-1.4841,-1.4886,-1.488,-1.4873,-1.4857,-1.4892,-1.4909,-1.4915,-1.4832,-1.4831,-1.4831,-1.4831,0,0,-1.4625,-1.4656,-1.4664,-1.4677,-1.4702,-1.4723,-1.4753,-1.4781,-1.4797,-1.4818,-1.4844,-1.4883,-1.4877,-1.4894,-1.4899,-1.492,-1.4959,-1.4911,-1.4912,-1.492,-1.501,-1.5016,-1.5023,-1.4957,-1.4959,-1.496,-1.5009,0,-1.4666,-1.4717,-1.4723,-1.4769,-1.4794,-1.4793,-1.482,-1.4839,-1.485,-1.4874,-1.4886,-1.4914,-1.4903,-1.4914,-1.4935,-1.4949,-1.4977,-1.4946,-1.4983,-1.4985,-1.4978,-1.5032,-1.5037,-1.5082,-1.5015,-1.5016,-1.5017,0,-1.4721,-1.4744,-1.4792,-1.4815,-1.4826,-1.4849,-1.4876,-1.4899,-1.4922,-1.4928,-1.4948,-1.495,-1.4983,-1.4966,-1.5012,-1.4991,-1.5007,-1.5017,-1.5019,-1.5023,-1.5003,-1.5038,-1.5097,-1.5104,-1.5027,-1.5026,-1.5025,0,-1.4751,-1.4793,-1.4828,-1.4839,-1.4867,-1.4884,-1.4896,-1.4918,-1.4935,-1.496,-1.4971,-1.5,-1.5016,-1.5038,-1.5049,-1.5036,-1.5096,-1.5079,-1.5104,-1.5103,-1.5116,-1.5115,-1.5179,-1.5126,-1.5126,-1.5126,-1.5125,0,-1.4797,-1.4827,-1.4841,-1.4863,-1.4897,-1.4905,-1.4939,-1.4951,-1.4971,-1.4996,-1.4998,-1.5022,-1.5035,-1.5061,-1.507,-1.5108,-1.5115,-1.5123,-1.5125,-1.5123,-1.5122,-1.5133,-1.5131,-1.5127,-1.5127,-1.5127,-1.5126,0,-1.4836,-1.4846,-1.4884,-1.4908,-1.4914,-1.4939,-1.496,-1.4981,-1.4992,-1.5024,-1.5033,-1.505,-1.5082,-1.5095,-1.5134,-1.514,-1.5184,-1.5183,-1.5176,-1.5177,-1.5201,-1.5198,-1.5274,-1.5285,-1.5224,-1.5225,-1.5225,0,-1.4864,-1.4887,-1.4913,-1.493,-1.4943,-1.4969,-1.4987,-1.4996,-1.5015,-1.5044,-1.5062,-1.5094,-1.5119,-1.517,-1.5187,-1.5218,-1.5218,-1.5243,-1.5223,-1.5221,-1.522,-1.5219,-1.5222,-1.5247,-1.5247,-1.5248,-1.5248,0,-1.4915,-1.492,-1.4944,-1.4971,-1.4991,-1.5013,-1.5035,-1.5049,-1.5062,-1.5083,-1.5115,-1.5134,-1.5174,-1.5206,-1.5238,-1.5253,-1.5254,-1.5254,-1.5262,-1.526,-1.5255,-1.5259,-1.5186,-1.5253,-1.5252,-1.5252,-1.5252,-1.5251,-1.495,-1.4971,-1.4993,-1.5021,-1.5038,-1.5058,-1.508,-1.5094,-1.512,-1.5152,-1.5157,-1.5191,-1.5216,-1.5258,-1.5275,-1.5303,-1.5297,-1.5308,-1.5311,-1.5313,-1.5315,-1.525,-1.5309,-1.5309,-1.5309,-1.5309,-1.5309,0,-1.5002,-1.5016,-1.5041,-1.5071,-1.5094,-1.5091,-1.5115,-1.5135,-1.5164,-1.5187,-1.5212,-1.5249,-1.5281,-1.5301,-1.5333,-1.5352,-1.5353,-1.536,-1.5359,-1.5363,-1.5318,-1.5309,-1.5359,-1.5359,-1.5359,-1.5359,-1.5359,-1.5359,-1.5031,-1.5067,-1.5074,-1.5119,-1.5133,-1.5166,-1.518,-1.52,-1.5218,-1.5259,-1.5285,-1.5298,-1.532,-1.5354,-1.5383,-1.5389,-1.5401,-1.5408,-1.5414,-1.5371,-1.5366,-1.5361,-1.5352,-1.5411,-1.5411,-1.5456,-1.5457,-1.5457]},{"header":{"parameterUnit":"m.s-1","parameterCategory":1,"la1":30.2991,"la2":30.254,"lo1":-89.0895,"lo2":-89.0444,"dy":0.0017,"dx":0.0017,"nx":28,"ny":28,"refTime":"2024-06-03T03:00:00:Z","depth":0,"parameterNumber":3,"parameterNumberName":"V-component_of_WINDS"},"data":[0,0,0,0,0,0,0,0,0,0,0,0,0,0,0,0,0,0,0,0,0,0,0,0,0,0,0,0,0,0,0,0,0,0,0,0,0,0,0,0,0,0,0,0,0,0,0,0,0,0,0,0,0,0,0,0,0,0,4.0228,4.0229,0,4.0258,4.0258,4.0259,4.0199,4.0197,4.0195,4.0193,4.0221,4.0223,4.0226,0,0,0,0,0,0,0,0,0,0,0,0,0,4.0117,4.012,4.0228,4.0229,4.0229,4.0258,4.0258,4.0259,4.0199,4.0197,4.0195,4.0192,4.022,4.0223,4.0226,0,0,0,0,0,0,0,0,0,0,0,0,0,4.0158,4.0121,4.0228,4.0203,4.0201,4.0258,4.0258,4.0259,4.02,4.0197,4.0194,4.0191,4.0219,4.0222,4.0226,4.0308,0,0,4.0238,4.0239,0,0,0,0,0,0,0,0,4.0156,4.0162,4.0206,4.0205,4.0203,4.0222,4.0229,4.0275,4.0201,4.02,4.0193,4.019,4.0223,4.0226,4.0238,4.0309,4.031,4.0238,4.024,4.0242,4.0243,0,0,0,0,0,0,0,4.0153,4.0161,4.024,4.0207,4.0205,4.0189,4.0192,4.0237,4.0228,4.02,4.0196,4.02,4.0222,4.0235,4.0238,4.0311,4.0238,4.0241,4.0244,4.0245,4.0449,4.0452,0,0,0,0,0,0,4.0154,4.0159,4.0239,4.0241,4.0172,4.0194,4.0196,4.0219,4.0227,4.0225,4.0203,4.0197,4.023,4.0234,4.0239,4.0335,4.0242,4.0246,4.0248,4.0446,4.045,4.0453,0,0,0,0,0,0,4.0152,4.0162,4.0238,4.0199,4.0207,4.0199,4.0224,4.0221,4.0234,4.0229,4.0227,4.0218,4.0228,4.0234,4.0291,4.0335,4.0247,4.0251,4.0442,4.0447,4.0452,4.0528,0,0,0,0,0,0,4.0149,4.0161,4.0193,4.02,4.021,4.0291,4.0227,4.0223,4.0241,4.0234,4.0243,4.0242,4.0226,4.0286,4.0295,4.0339,4.0254,4.0438,4.0445,4.045,4.0521,4.0534,4.0546,0,0,0,0,0,4.0145,4.0213,4.0195,4.0205,4.0249,4.0293,4.0299,4.028,4.0245,4.0276,4.0273,4.0241,4.0329,4.0292,4.0302,4.0348,4.0436,4.0443,4.045,4.0516,4.0532,4.0545,0,0,0,0,0,0,4.021,4.0213,4.0194,4.0266,4.028,4.0283,4.0322,4.0298,4.0322,4.0314,4.0289,4.0291,4.0354,4.0356,4.0315,4.0427,4.0376,4.0385,4.0423,4.0438,4.045,4.0448,4.0257,0,0,0,0,0,4.0233,4.027,4.027,4.0333,4.0342,4.0331,4.0349,4.0334,4.0347,4.0353,4.0353,4.0367,4.0397,4.0418,4.0445,4.0521,4.0522,4.0557,4.0569,4.0579,4.0588,4.0627,4.0643,4.0476,4.0476,4.0476,0,0,4.0281,4.0287,4.0311,4.0347,4.0356,4.0393,4.0336,4.0378,4.0406,4.0359,4.0413,4.0414,4.0427,4.0494,4.0524,4.0498,4.0634,4.0588,4.0597,4.0599,4.0636,4.0652,4.0666,4.0481,4.048,4.048,0,0,4.0386,4.0395,4.0449,4.0459,4.0474,4.0466,4.0479,4.0487,4.0486,4.054,4.0506,4.0537,4.059,4.0601,4.0613,4.0723,4.0695,4.0733,4.0796,4.0836,4.0849,4.086,4.0899,4.0913,4.0741,4.0741,4.0741,0,4.0443,4.0499,4.0479,4.0524,4.054,4.05,4.0554,4.0564,4.0587,4.0599,4.057,4.0636,4.0642,4.0711,4.0737,4.0749,4.0762,4.0731,4.0849,4.086,4.087,4.0907,4.0922,4.0746,4.0745,4.0745,4.0744,0,4.0568,4.0607,4.0649,4.0673,4.0694,4.0743,4.0729,4.0752,4.0735,4.073,4.0786,4.0791,4.082,4.0835,4.0818,4.0901,4.0885,4.0853,4.0801,4.0891,4.0925,4.0939,4.0752,4.075,4.0749,4.0748,0,0,4.0716,4.0728,4.0744,4.0754,4.0768,4.0797,4.0844,4.0872,4.0892,4.0909,4.0947,4.0993,4.0964,4.0978,4.0962,4.0996,4.1082,4.096,4.096,4.0982,4.1174,4.1198,4.1215,4.1063,4.1066,4.1068,4.1173,0,4.082,4.0902,4.0885,4.0964,4.1,4.0962,4.1003,4.1015,4.1012,4.1041,4.1036,4.1069,4.1028,4.1036,4.1068,4.1065,4.112,4.1057,4.1098,4.11,4.1096,4.1232,4.1258,4.1356,4.1186,4.1188,4.119,0,4.0953,4.0976,4.106,4.1067,4.1082,4.1119,4.1143,4.1172,4.1184,4.1179,4.1195,4.1172,4.1217,4.1166,4.1227,4.1185,4.12,4.1201,4.1204,4.1207,4.115,4.1239,4.1387,4.1402,4.121,4.1209,4.1207,0,4.1052,4.1104,4.1161,4.1171,4.1181,4.1208,4.1213,4.1223,4.1241,4.1262,4.1273,4.1299,4.1313,4.1333,4.1317,4.1281,4.1381,4.1328,4.1378,4.1379,4.1401,4.14,4.1554,4.1411,4.1411,4.1411,4.141,0,4.1171,4.1224,4.1206,4.1241,4.1298,4.1277,4.1334,4.1335,4.1344,4.1377,4.1346,4.1378,4.1355,4.1385,4.1373,4.1425,4.1432,4.1429,4.1425,4.1432,4.1432,4.1441,4.1434,4.1414,4.1414,4.1413,4.1412,0,4.1292,4.1282,4.1341,4.1346,4.1348,4.1391,4.1394,4.1426,4.142,4.1463,4.1472,4.1462,4.1496,4.1482,4.1517,4.1509,4.1577,4.1564,4.1573,4.157,4.162,4.1615,4.1785,4.1806,4.165,4.1652,4.1653,0,4.1368,4.1408,4.1417,4.1438,4.1446,4.148,4.1498,4.1479,4.1499,4.1516,4.1546,4.1577,4.16,4.1655,4.1651,4.1678,4.1665,4.1723,4.1669,4.1674,4.1666,4.1664,4.1668,4.1734,4.1735,4.1737,4.1738,0,4.1505,4.1498,4.1526,4.1553,4.1577,4.1597,4.1613,4.1632,4.1613,4.1638,4.1672,4.169,4.1727,4.1757,4.1781,4.1785,4.1759,4.1755,4.1768,4.1775,4.1779,4.1778,4.1602,4.1751,4.175,4.1749,4.1748,4.1748,4.1606,4.1639,4.1651,4.1684,4.1695,4.1711,4.1742,4.174,4.1768,4.1797,4.1783,4.1823,4.1834,4.1863,4.187,4.1901,4.1878,4.1896,4.1901,4.1906,4.1913,4.1775,4.1905,4.1904,4.1904,4.1904,4.1903,0,4.1741,4.1747,4.1777,4.1802,4.1828,4.1801,4.1818,4.1841,4.1877,4.189,4.1914,4.1953,4.1982,4.1981,4.2008,4.2032,4.2021,4.204,4.2038,4.2039,4.1932,4.1918,4.2049,4.2049,4.2049,4.2049,4.2049,4.2049,4.1814,4.1869,4.1864,4.1924,4.1929,4.1968,4.198,4.1995,4.2005,4.2051,4.2075,4.2074,4.2081,4.2108,4.2134,4.2133,4.2144,4.2168,4.2162,4.2061,4.2047,4.2033,4.202,4.2171,4.2171,4.2267,4.2268,4.2269]}]]